TimeEST,TemperatureF,Dew PointF,Humidity,Sea Level PressureIn,VisibilityMPH,Wind Direction,Wind SpeedMPH,Gust SpeedMPH,PrecipitationIn,Events,Conditions,WindDirDegrees,DateUTC
12:53 AM,33.1,28.0,82,29.73,10.0,Calm,Calm,-,N/A,,Overcast,0,2013-11-23 05:53:00
1:53 AM,33.1,30.0,89,29.71,8.0,SSW,5.8,-,0.02,Rain,Light Rain,200,2013-11-23 06:53:00
2:53 AM,34.0,30.9,89,29.68,10.0,SSW,5.8,-,0.01,,Overcast,200,2013-11-23 07:53:00
3:42 AM,33.1,30.9,92,29.65,9.0,SSW,5.8,-,N/A,,Mostly Cloudy,210,2013-11-23 08:42:00
3:53 AM,33.1,30.9,92,29.65,8.0,Calm,Calm,-,N/A,,Mostly Cloudy,0,2013-11-23 08:53:00
4:00 AM,33.1,30.9,92,29.65,7.0,Calm,Calm,-,N/A,,Mostly Cloudy,0,2013-11-23 09:00:00
4:53 AM,34.0,32.0,92,29.65,9.0,Variable,3.5,-,N/A,,Overcast,0,2013-11-23 09:53:00
5:53 AM,35.1,30.0,82,29.65,10.0,Variable,4.6,-,N/A,,Scattered Clouds,0,2013-11-23 10:53:00
6:53 AM,36.0,27.0,70,29.67,10.0,WNW,9.2,21.9,N/A,,Scattered Clouds,300,2013-11-23 11:53:00
7:53 AM,36.0,26.1,67,29.70,10.0,WNW,13.8,20.7,N/A,,Mostly Cloudy,300,2013-11-23 12:53:00
8:53 AM,36.0,21.0,55,29.71,10.0,West,13.8,27.6,N/A,,Mostly Cloudy,280,2013-11-23 13:53:00
9:53 AM,36.0,19.0,50,29.73,10.0,NW,19.6,31.1,N/A,,Mostly Cloudy,310,2013-11-23 14:53:00
10:53 AM,37.0,18.0,46,29.71,10.0,WNW,19.6,31.1,N/A,,Scattered Clouds,290,2013-11-23 15:53:00
11:53 AM,37.0,16.0,42,29.69,10.0,West,18.4,29.9,N/A,,Partly Cloudy,280,2013-11-23 16:53:00
12:53 PM,37.0,16.0,42,29.68,10.0,WNW,18.4,25.3,N/A,,Partly Cloudy,300,2013-11-23 17:53:00
1:53 PM,37.0,14.0,39,29.68,10.0,West,15.0,26.5,N/A,,Partly Cloudy,270,2013-11-23 18:53:00
2:53 PM,35.1,14.0,42,29.68,10.0,West,9.2,20.7,N/A,,Partly Cloudy,270,2013-11-23 19:53:00
3:53 PM,33.1,12.0,42,29.68,10.0,WNW,11.5,23.0,N/A,,Partly Cloudy,290,2013-11-23 20:53:00
4:53 PM,30.9,12.0,46,29.68,10.0,WNW,9.2,-,N/A,,Partly Cloudy,300,2013-11-23 21:53:00
5:53 PM,28.0,12.9,53,29.68,10.0,SW,5.8,-,N/A,,Clear,230,2013-11-23 22:53:00
6:53 PM,28.9,12.9,51,29.68,10.0,West,8.1,-,N/A,,Partly Cloudy,260,2013-11-23 23:53:00
7:53 PM,28.0,12.9,53,29.66,10.0,West,9.2,-,N/A,,Clear,260,2013-11-24 00:53:00
8:53 PM,28.0,12.9,53,29.65,10.0,West,8.1,-,N/A,,Clear,260,2013-11-24 01:53:00
9:53 PM,27.0,14.0,58,29.64,10.0,West,8.1,-,N/A,,Clear,260,2013-11-24 02:53:00
10:53 PM,27.0,14.0,58,29.62,10.0,West,6.9,-,N/A,,Clear,270,2013-11-24 03:53:00
11:53 PM,26.1,15.1,63,29.62,10.0,NW,6.9,-,N/A,,Partly Cloudy,310,2013-11-24 04:53:00